SCP
0 0 0 0 0 0 0 0 0 0 0 0 0 0 0 0 0 0 0 0 0 0 0 0 0 0 0 0 0 0 0 0 0 0 0 1 3 4 4 4 3 2 1 1
0 0 0 0 0 0 0 0 0 0 0 0 0 0 0 0 0 0 0 0 0 0 0 0 0 0 0 0 0 0 0 0 0 0 0 1 2 3 4 4 3 2 1 1
0 0 0 0 0 0 0 0 0 0 0 0 0 0 0 0 0 0 0 0 0 0 0 0 0 0 0 0 0 0 0 0 0 0 0 0 1 2 4 4 4 3 2 1
0 0 0 0 0 0 0 0 0 0 0 0 0 0 0 0 0 0 0 0 0 0 0 0 0 0 0 0 0 0 0 0 0 0 0 0 0 1 2 3 4 3 2 2
0 0 0 0 0 0 0 0 0 0 0 0 0 0 0 0 0 0 0 0 0 0 0 0 0 0 0 0 0 0 0 0 0 0 0 0 0 0 1 2 3 3 3 2
0 0 0 0 0 0 0 0 0 0 0 0 0 0 0 0 0 0 0 0 0 0 0 0 0 0 0 0 0 0 0 0 0 0 0 0 0 0 0 1 2 3 3 2
0 0 0 0 0 0 0 0 0 0 0 0 0 0 0 0 0 0 0 0 0 0 0 0 0 0 0 0 0 0 0 0 0 0 0 0 0 0 0 1 2 2 2 2
0 0 0 0 0 0 0 0 0 0 0 0 0 0 0 0 0 0 0 0 0 0 0 0 0 0 0 0 0 0 0 0 0 0 0 0 0 0 0 0 1 2 2 2
0 0 0 0 0 0 0 0 0 0 0 0 0 0 0 0 0 0 0 0 0 0 0 0 0 0 0 0 0 0 0 0 0 0 0 0 0 0 0 0 1 2 2 2
0 0 0 0 0 0 0 0 0 0 0 0 0 0 0 0 0 0 0 0 0 0 0 0 0 0 0 0 0 0 0 0 0 0 0 0 0 0 0 0 1 2 2 2
0 0 0 0 0 0 0 0 0 0 0 0 0 0 0 0 0 0 0 0 0 0 0 0 0 0 0 0 0 0 0 0 0 0 0 0 0 0 0 0 1 1 1 1
0 0 0 0 0 0 0 0 0 0 0 0 0 0 0 0 0 0 0 0 0 0 0 0 0 0 0 0 0 0 0 0 0 0 0 0 0 0 0 0 0 0 1 1
0 0 0 0 0 0 0 0 0 0 0 0 0 0 0 0 0 0 0 0 0 0 0 0 0 0 0 0 0 0 0 0 0 0 0 0 0 0 0 0 0 0 0 0
0 0 0 0 0 0 0 0 0 0 0 0 0 0 0 0 0 0 0 0 0 0 0 0 0 0 0 0 0 0 0 0 0 0 0 0 0 0 0 0 0 0 0 0
0 0 0 0 0 0 0 0 0 0 0 0 0 0 0 0 0 0 0 0 0 0 0 0 0 0 0 0 0 0 0 0 0 0 0 0 0 0 0 0 0 0 0 0
0 0 0 0 0 0 0 0 0 0 0 0 0 0 0 0 0 0 0 0 0 0 0 0 0 0 0 0 0 0 0 0 0 0 0 0 0 0 0 0 0 0 0 0
0 0 0 0 0 0 0 0 0 0 0 0 0 0 0 0 0 0 0 0 0 0 0 0 0 0 0 0 0 0 0 0 0 0 0 0 0 0 0 0 0 0 0 0
0 0 0 0 0 0 0 0 0 0 0 0 0 0 0 0 0 0 0 0 0 0 0 0 0 0 0 0 0 0 0 0 0 0 0 0 0 0 0 0 0 0 0 0
0 0 0 0 0 0 0 0 0 0 0 0 0 0 0 0 0 0 0 0 0 0 0 0 0 0 0 0 0 0 0 0 0 0 0 0 0 0 0 0 0 0 0 0
0 0 0 0 0 0 0 0 0 0 0 0 0 0 0 0 0 0 0 0 0 0 0 0 0 0 0 0 0 0 0 0 0 0 0 0 0 0 0 0 0 0 0 0
0 0 0 0 0 0 0 0 0 0 0 0 0 0 0 0 0 0 0 0 0 0 0 0 0 0 0 0 0 0 0 0 0 0 0 0 0 0 0 0 0 0 0 0
0 0 0 0 0 0 0 0 0 0 0 0 0 0 0 0 0 0 0 0 0 0 0 0 0 0 0 0 0 0 0 0 0 0 0 0 0 0 0 0 0 0 0 0
0 0 0 0 0 0 0 0 0 0 0 0 0 0 0 0 0 0 0 0 0 0 0 0 0 0 0 0 0 0 0 0 0 0 0 0 0 0 0 0 0 0 0 0
0 0 0 0 0 0 0 0 0 0 0 0 0 0 0 0 0 0 0 0 0 0 0 0 0 0 0 0 0 0 0 0 0 0 0 0 0 0 0 0 0 0 0 0
0 0 0 0 0 0 0 0 0 0 0 0 0 0 0 0 0 0 0 0 0 0 0 0 0 0 0 0 0 0 0 0 0 0 0 0 0 0 0 0 0 0 0 0
0 0 0 0 0 0 0 0 0 0 0 0 0 0 0 0 0 0 0 0 0 0 0 0 0 0 0 0 0 0 0 0 0 0 0 0 0 0 0 0 0 0 0 0
0 0 0 0 0 0 0 0 0 0 0 0 0 0 0 0 0 0 0 0 0 0 0 0 0 0 0 0 0 0 0 0 0 0 0 0 0 0 0 0 0 0 0 0
Wind_Speed
10 10 8 10 12 14 16 13 10 11 12 9 6 4 3 3 4 5 6 7 8 8 8 8 8 8 8 8 8 9 9 9 9 8 8 8 8 8 8 7 7 7 7 7
10 9 9 12 14 16 17 17 16 14 13 7 5 4 3 3 5 5 5 6 7 7 8 9 9 9 9 8 9 9 10 9 8 9 8 8 8 8 8 7 7 7 7 8
6 5 7 12 15 17 16 15 15 17 13 6 5 4 4 3 4 5 6 6 7 7 8 9 9 10 10 10 9 9 9 9 9 9 9 8 8 9 8 8 8 7 7 7
4 4 10 8 4 10 14 15 13 12 9 7 7 6 4 2 3 4 5 6 6 6 7 7 8 8 8 9 9 9 9 9 9 9 9 9 9 8 8 7 7 7 7 7
3 5 8 7 7 7 10 12 10 11 10 8 6 5 4 2 2 3 4 4 5 5 6 7 8 9 10 9 9 9 10 10 10 10 10 10 10 9 8 7 7 6 7 7
5 5 7 3 3 4 6 9 4 6 8 7 5 6 6 3 3 3 3 3 3 4 4 6 8 9 10 10 10 11 11 10 10 10 11 10 10 8 7 7 7 7 6 6
8 7 7 5 5 0 5 3 3 5 6 6 7 6 3 3 4 3 3 3 3 4 5 6 8 9 10 10 10 10 9 9 9 9 10 9 8 7 8 7 7 7 7 5
7 8 8 3 2 1 2 4 5 4 3 3 4 4 3 3 4 3 2 2 3 4 4 5 8 9 9 9 9 9 10 10 9 9 8 8 9 8 8 9 9 7 7 6
6 7 4 1 2 2 3 3 4 5 6 5 4 4 4 4 4 4 3 2 2 4 4 4 6 8 9 8 9 10 10 10 9 9 8 8 10 10 8 8 7 7 6 6
6 7 7 5 4 4 4 4 5 5 5 6 6 6 5 4 4 4 3 3 2 4 5 5 5 6 7 9 10 11 11 10 10 9 8 7 7 7 7 8 7 7 7 6
10 9 7 7 5 4 5 5 6 6 5 5 7 7 6 5 5 5 4 3 3 5 5 5 5 5 7 9 11 11 11 10 9 8 9 8 6 4 5 5 8 9 7 7
9 6 6 6 4 4 5 6 7 7 7 7 7 8 7 6 5 5 4 3 4 5 5 5 5 6 7 9 11 12 11 10 8 8 7 7 7 6 7 7 9 9 9 8
10 9 8 9 8 7 7 8 7 7 8 9 8 7 7 6 5 5 5 5 6 6 6 6 6 7 7 8 10 11 11 10 8 8 8 8 8 9 8 7 9 10 11 11
9 9 10 10 9 8 7 8 8 8 8 8 8 7 6 6 5 5 6 6 5 5 6 7 7 7 7 8 9 10 10 10 10 8 8 8 8 7 8 9 7 5 6 11
11 10 11 10 9 8 8 7 9 9 8 8 7 7 6 6 6 6 5 4 4 5 5 6 7 7 7 8 9 10 10 8 8 7 7 7 7 7 7 8 7 6 5 6
10 10 10 11 11 10 9 9 10 9 8 8 7 7 6 6 5 4 3 4 6 7 7 7 7 7 8 9 10 8 8 11 10 8 8 8 7 7 7 7 7 6 6 5
10 12 11 10 11 11 10 9 9 9 8 8 7 6 5 4 4 4 4 4 4 4 5 6 6 7 8 9 9 8 8 10 13 9 7 8 7 7 7 7 7 6 5 6
11 11 10 10 10 10 9 8 8 8 7 7 6 5 5 5 6 5 4 4 4 4 4 5 7 8 8 9 8 8 8 8 8 8 7 7 7 7 7 7 7 7 5 6
9 10 10 10 10 9 8 8 8 7 6 5 5 6 5 5 5 4 5 6 6 6 4 6 10 9 8 9 10 8 9 9 8 7 7 10 8 6 7 7 6 6 6 5
8 8 8 8 8 8 8 7 6 6 5 5 5 5 4 4 4 5 5 4 3 4 6 8 8 8 8 9 10 8 9 10 9 8 8 7 7 7 6 6 6 6 5 5
8 7 7 7 8 7 7 6 5 6 5 4 5 5 4 4 4 5 5 4 3 6 8 10 7 6 7 9 11 8 8 9 8 8 8 7 7 7 7 6 6 6 5 5
7 6 7 6 6 6 5 4 4 4 3 3 3 4 5 5 5 4 3 3 5 8 7 6 6 9 11 11 7 8 8 8 8 7 7 7 7 7 7 6 6 5 5 4
7 6 6 6 6 5 4 2 2 2 3 3 4 4 5 4 4 5 4 3 5 9 7 6 10 15 15 9 7 8 8 8 7 7 7 7 6 6 6 6 5 5 5 4
6 6 6 5 4 4 3 2 1 0 1 2 3 4 4 5 3 3 4 8 10 10 6 10 15 15 13 7 7 7 7 7 7 7 7 6 6 6 5 5 5 4 4 4
6 5 4 4 4 3 2 1 1 2 4 4 4 4 3 3 4 5 6 7 11 11 8 11 15 13 8 6 7 6 6 6 7 7 6 6 6 5 5 5 5 4 4 3
5 4 4 3 3 2 1 1 1 2 3 4 4 4 4 5 6 5 6 7 9 11 8 7 7 8 6 6 6 7 6 7 7 6 6 6 6 5 5 5 5 4 3 3
5 4 3 2 2 1 0 1 2 2 3 4 5 4 5 5 5 6 7 7 7 7 6 6 6 6 6 6 6 6 6 5 5 5 5 5 5 4 5 5 4 3 3 3
Wind_Direction
272 280 248 244 235 222 220 225 228 235 244 242 227 218 212 181 166 158 160 163 164 166 168 167 167 167 167 167 164 163 163 168 172 167 163 163 163 161 157 156 158 157 154 153
271 272 265 256 241 230 227 227 236 250 251 250 241 224 216 184 169 172 177 178 173 172 172 173 172 169 166 166 166 163 166 169 163 159 158 160 159 155 153 154 154 152 154 154
259 275 285 254 233 227 225 223 226 236 244 263 270 242 220 193 181 184 188 189 186 183 181 179 175 169 168 166 163 163 164 163 160 158 159 159 154 153 158 157 152 152 154 156
260 248 237 247 233 223 229 231 230 241 252 252 255 262 255 218 190 192 196 195 195 187 181 177 166 161 158 157 160 161 161 162 160 158 157 154 154 158 160 156 156 156 157 158
232 242 263 264 234 223 225 236 229 237 247 257 259 270 256 246 247 222 204 204 199 188 180 169 163 158 153 156 159 161 165 167 164 160 158 158 162 164 160 154 154 154 155 154
232 238 241 272 293 236 227 241 247 247 247 252 241 240 248 261 263 249 223 205 195 178 163 162 163 154 155 161 165 172 172 168 162 160 160 163 164 159 152 148 148 144 144 150
230 245 263 293 312 296 209 254 312 256 253 249 237 241 270 271 258 246 236 219 190 171 168 169 159 154 162 168 178 173 161 156 155 158 160 158 154 149 145 141 138 138 139 139
220 231 244 321 12 148 285 330 340 342 323 301 292 299 310 303 288 279 262 231 188 178 175 163 158 161 170 178 170 152 150 151 153 153 153 149 146 145 145 144 142 142 137 133
218 236 267 273 269 279 307 320 332 336 340 336 320 313 308 294 287 283 255 224 202 180 171 167 167 170 175 171 152 147 148 150 147 144 147 149 149 148 148 149 148 150 150 150
251 253 264 271 275 291 296 300 310 317 323 323 310 304 302 290 288 285 269 230 203 177 174 182 180 176 169 156 152 150 151 149 147 146 146 144 146 150 154 156 154 155 157 157
255 265 277 272 269 275 285 299 307 310 309 307 303 296 289 276 271 269 268 249 202 191 189 189 175 165 157 155 151 149 148 147 146 144 142 137 132 137 148 157 165 162 164 160
250 257 265 273 283 299 303 303 299 301 303 298 287 283 284 271 262 257 247 236 214 198 185 180 165 163 161 158 153 149 148 149 148 145 141 136 129 105 84 113 128 134 140 142
267 278 277 283 286 284 286 290 290 288 287 288 282 274 275 270 263 250 236 221 210 196 185 175 165 166 167 161 156 155 154 152 149 147 146 145 143 139 126 99 103 120 133 139
268 276 277 276 277 282 280 282 284 281 280 279 276 270 266 266 259 244 233 222 206 186 179 172 166 170 167 158 153 150 148 149 148 149 149 148 148 145 143 141 135 123 131 141
262 262 265 271 273 274 272 272 273 272 274 276 273 266 257 253 252 246 233 206 183 176 176 168 167 168 159 153 149 147 146 147 144 143 143 142 142 140 138 138 137 136 128 137
266 265 264 264 265 266 262 260 262 264 265 267 266 264 257 248 247 241 225 191 181 184 180 172 171 163 152 147 143 140 142 144 143 143 141 141 142 143 142 142 143 146 152 153
260 261 261 262 262 263 258 254 256 259 259 259 259 257 247 235 228 224 217 198 184 180 169 164 160 148 146 144 143 142 141 142 140 139 142 144 145 146 145 145 148 150 156 162
256 259 260 261 261 262 261 257 255 253 252 254 258 245 229 221 220 215 196 163 141 137 146 148 145 142 140 140 139 140 141 141 141 141 139 140 140 141 141 143 147 148 148 157
267 265 265 262 259 256 258 258 255 251 247 244 243 237 229 222 212 194 171 159 158 162 162 144 142 140 138 141 138 137 137 135 133 134 134 139 137 139 140 144 146 148 151 153
288 281 277 275 267 257 256 257 254 251 246 235 226 223 222 210 185 167 156 159 170 156 145 143 138 134 135 138 134 134 136 137 138 138 137 140 142 142 142 144 146 149 152 155
297 291 282 278 272 264 257 252 245 245 243 224 212 210 202 182 161 153 147 144 138 135 137 138 134 134 135 138 132 132 133 135 137 139 140 141 141 142 143 145 149 152 154 155
303 298 293 289 282 271 263 253 243 239 229 211 196 175 161 152 142 131 124 138 141 137 133 133 131 137 140 136 129 130 132 134 135 136 139 142 144 146 148 150 152 154 154 155
305 302 300 296 293 290 293 278 250 229 208 194 175 165 157 150 146 144 141 135 136 136 129 129 134 137 135 126 125 129 133 134 136 138 139 140 142 146 149 150 152 152 153 155
309 310 309 309 311 306 300 303 302 240 151 135 130 135 137 133 117 107 120 135 136 129 123 132 134 134 129 119 122 126 129 130 130 131 131 133 136 139 143 146 147 149 152 156
310 306 305 308 304 294 295 326 77 94 97 94 90 88 91 103 119 123 124 132 133 125 121 131 131 128 120 117 121 123 124 128 131 132 133 136 138 140 142 143 146 150 155 160
308 305 302 294 287 286 274 149 116 105 106 105 97 88 87 92 101 108 114 117 120 119 116 120 125 119 112 115 117 118 120 125 125 125 131 132 135 137 141 143 147 154 158 162
313 314 318 329 334 329 347 102 117 118 120 120 111 102 101 103 106 110 111 111 112 110 110 111 111 110 112 114 115 115 116 117 120 124 127 130 135 139 143 145 148 151 156 164